Location: Mahannah Oil Field
(37.4664°N, 96.6003°W)
Time: 03:39:41
(UTC+00:00)

Tiros 1 despin weight - Pass Details

Date: 01 February 2021
Orbit: 593 x 642 km, 48.2° (Epoch: 02 March)

Event Time Altitude Azimuth Distance (km) Brightness Sun altitude
Rises 01:18:31 0° 289° (WNW) 2,851 ? -17.8°
Reaches altitude 10° 01:21:31 10° 268° (W) 1,936 ? -18.4°
Maximum altitude 01:24:19 17° 229° (SW) 1,541 ? -18.9°
Drops below altitude 10° 01:27:06 10° 189° (S) 1,917 ? -19.5°
Sets 01:30:04 0° 169° (SSE) 2,810 ? -20.1°
